Location: Terra Rouge Observatory
(46.0000°N, 62.7500°W)
Time: 07:36:11
(UTC-03:00)

Daily predictions for brighter satellites

Satellite Brightness Start Highest point End
(mag) Time Altitude Azimuth Time Altitude Azimuth Time Altitude Azimuth
NOSS 3-4 (A) 4.2 21:30:17 10° NW 21:37:13 64° WSW 21:44:36 10° SSE
NOSS 3-4 (C) 4.2 21:30:23 10° NW 21:37:19 65° WSW 21:44:42 10° SSE
Cosmos 1741 Rocket 4.4 21:32:41 10° S 21:37:44 46° ESE 21:42:48 10° NNE
Lacrosse 4 Rocket 2.2 21:34:25 10° SW 21:38:37 59° NW 21:42:57 10° NNE
CZ-3B DEB 4.3 21:29:06 10° WSW 21:38:52 72° NNW 21:52:00 10° ENE
Cosmos 1908 3.7 21:36:31 10° N 21:40:18 46° ENE 21:44:00 10° SSE
Cosmos 1674 3.3 21:39:41 10° SSE 21:43:09 36° E 21:46:38 10° NNE
In-Cosmos 22 4.3 21:38:28 10° S 21:44:10 83° E 21:49:59 10° NNE
ARGOS 3.6 21:39:51 10° SE 21:45:05 51° ENE 21:50:19 10° N
MetOp-A 4.3 21:42:16 10° SSE 21:47:34 68° ENE 21:52:54 10° N
Cosmos 1184 Rocket 3.1 21:44:37 10° SSW 21:47:59 75° WNW 21:51:23 10° N
Cosmos 1408 Rocket 4.4 21:47:32 10° SSE 21:51:18 31° E 21:55:06 10° NNE
Cosmos 2333 Rocket 4.3 21:52:12 10° NW 21:56:26 22° W 22:00:39 10° SSW
Cosmos 2016 Rocket 4.4 21:50:29 10° N 21:56:36 51° ENE 22:02:36 10° SSE
Cosmos 1076 Rocket 3.7 21:52:51 10° S 21:57:08 56° E 22:01:25 10° NNE
Cosmos 1356 Rocket 3.7 21:53:14 10° S 21:57:20 50° E 22:01:31 10° NNE
Terra 3.3 21:57:55 10° ESE 22:01:40 24° ENE 22:05:25 10° NNE
Tiangong 1 1.5 22:00:13 10° SW 22:02:47 33° S 22:05:21 10° ESE
Cosmos 2221 2.9 22:01:51 10° NNW 22:06:13 67° W 22:10:34 10° S
Okean 3 Rocket 3.7 22:03:08 10° S 22:07:39 83° W 22:12:10 10° N
Cosmos 2208 Rocket 4.2 22:02:57 10° NNW 22:08:17 80° WSW 22:13:40 10° SSE
NOAA 11 4.4 22:05:33 10° S 22:10:57 72° WSW 22:16:24 10° NNW
Cosmos 332 Rocket 4.4 22:06:54 10° N 22:11:38 46° ENE 22:15:50 13° SE
EO 1 Delta rocket 4.1 22:13:34 11° SSE 22:17:56 55° ENE 22:22:29 10° N
ERBS 3.6 22:14:58 10° NW 22:18:09 35° NNE 22:21:18 10° E
RESURS DK-1 2.7 22:16:00 10° NNW 22:20:07 56° ENE 22:23:26 15° SE
SPOT 1/Viking Rocket 3.6 22:15:57 12° SSE 22:20:46 70° ENE 22:25:55 10° N
SL-08 RB Rocket 3.7 22:17:56 11° SSE 22:22:19 85° ENE 22:26:58 10° NNW
Meteor 1-21 Rocket 4.2 22:18:30 10° S 22:24:12 90° E 22:29:50 10° N
Cosmos 1242 Rocket 3.2 22:20:54 10° NNW 22:24:33 55° W 22:28:10 10° S
YAOGAN 11 4.3 22:20:44 10° S 22:25:13 77° WSW 22:29:47 10° NNW
Cosmos 1766 Rocket 3.5 22:22:15 10° S 22:26:33 77° E 22:30:56 10° NNE
Cosmos 841 Rocket 4.5 22:22:12 10° N 22:27:04 36° ENE 22:31:08 14° ESE
USA 245 3.4 22:26:12 12° S 22:29:09 66° W 22:33:16 10° NNW
Cosmos 1763 Rocket 4.0 22:25:46 10° NNW 22:30:44 46° ENE 22:34:34 16° SE
Cosmos 2297 Rocket 3.8 22:25:45 10° WSW 22:30:59 38° NW 22:36:16 10° NNE
Cosmos 1328 Rocket 3.7 22:28:15 10° N 22:32:34 59° E 22:35:46 17° SSE
Cosmos 2228 Rocket 3.4 22:29:02 10° N 22:33:34 57° ENE 22:36:58 17° SSE
Cosmos 1515 Rocket 4.0 22:31:47 10° N 22:36:00 46° ENE 22:38:53 18° SE
H-2A ROCKET BODY 4.1 22:35:18 13° SSE 22:38:03 16° SE 22:45:50 10° ESE
SL-14 R/B 3.5 22:35:17 16° SSE 22:38:16 51° E 22:42:07 10° NNE
Cosmos 1867 3.6 22:33:11 10° SW 22:38:39 89° ESE 22:44:09 10° NE
Cosmos 2061 Rocket 4.4 22:32:34 10° NNW 22:38:53 65° W 22:45:13 10° S
Cosmos 1743 Rocket 3.7 22:39:47 16° SSE 22:43:01 52° E 22:47:15 10° NNE
H-2A R/B 2.8 22:40:13 18° SE 22:43:03 41° ENE 22:47:02 10° N
Cosmos 2263 Rocket 3.2 22:40:06 17° SE 22:43:04 27° ESE 22:47:40 10° NE
Cosmos 1328 3.9 22:40:16 16° S 22:43:19 58° E 22:47:17 10° NNE
Cosmos 1151 Rocket 3.6 22:41:05 10° N 22:45:20 45° ENE 22:48:00 20° SE
Cosmos 1300 2.6 22:43:34 10° N 22:47:25 88° E 22:50:00 20° S
ATLAS 5 CENTAUR R/B 2.6 22:46:59 10° SW 22:51:38 55° NW 22:56:46 10° NNE
Cosmos 2123 Rocket 4.0 22:46:01 10° S 22:52:12 83° E 22:58:26 10° N
Meteor 2-10 4.2 22:46:38 10° N 22:52:14 88° E 22:56:37 18° S
Cosmos 1626 3.3 22:51:04 21° SE 22:52:23 26° E 22:55:33 10° NNE
SPOT 5 3.8 22:49:06 10° S 22:53:40 44° W 22:58:32 10° NNW
Lacrosse 5 1.9 22:50:40 10° NW 22:55:43 70° SW 22:58:58 22° SE
USA 234 3.2 22:49:16 10° NE 22:55:52 84° SE 23:02:25 10° SW
Cosmos 1726 2.7 22:52:35 10° NNW 22:56:12 53° W 22:58:49 17° SSW
Cosmos 468 Rocket 4.3 22:52:47 10° NNW 22:57:50 59° WSW 23:01:35 18° S
Cosmos 2084 4.0 22:54:01 10° SW 22:57:53 53° NW 23:01:38 10° NNE
IGS 5A 3.5 22:57:29 23° SSE 23:00:00 73° ENE 23:04:10 10° N
Cosmos 371 Rocket 3.3 22:57:49 10° NNW 23:02:39 78° WSW 23:05:42 23° SSE
Cosmos 1603 4.1 22:57:53 10° NNW 23:03:28 58° WSW 23:07:25 19° S
H-2A R/B 2.7 23:00:47 14° S 23:05:15 53° W 23:10:34 10° NNW
Cosmos 1725 Rocket 4.3 23:06:39 10° NNW 23:12:50 64° W 23:17:52 16° S
Abrixas rocket 2.1 23:10:36 10° WNW 23:13:50 71° SSW 23:14:57 37° SE
PSLV R/B 3.0 23:18:04 47° SE 23:18:41 66° ENE 23:21:32 10° N
CZ-4C R/B 4.1 23:17:24 26° SE 23:19:23 45° ENE 23:23:35 10° N
SL-16 R/B 4.4 23:16:33 10° WNW 23:19:50 16° W 23:23:05 10° SW
Cosmos 1943 3.2 23:15:10 10° NNW 23:20:51 82° WSW 23:24:10 26° SSE
Cosmos 1455 2.7 23:17:39 10° N 23:21:26 48° ENE 23:22:49 32° SE
CZ-4C R/B 3.8 23:24:34 15° ESE 23:24:45 15° ESE 23:27:47 10° ENE
Cosmos 220 Rocket 4.2 23:20:53 13° SSW 23:24:50 73° WNW 23:29:15 10° NNE
deb Chang Zheng 4 3.5 23:23:03 10° NNE 23:27:25 75° ESE 23:29:44 27° S
CZ-4B R/B 3.7 23:25:15 10° NNE 23:30:30 59° ESE 23:33:13 28° S
ALOS 2 4.4 23:29:09 15° E 23:31:20 21° ENE 23:34:37 10° NNE
Sich 1 4.2 23:30:53 24° ESE 23:31:55 27° E 23:35:30 10° NNE
CZ-4 R/B 3.8 23:27:38 10° NNE 23:32:33 75° ESE 23:35:11 27° S
Cosmos 540 Rocket 3.6 23:31:06 10° NNW 23:36:15 65° ENE 23:38:48 29° SE
SME Rocket 3.1 23:36:02 35° SE 23:37:33 68° ENE 23:42:08 10° NNW
Cosmos 1707 Rocket 4.1 23:33:31 10° N 23:37:52 46° ENE 23:39:33 31° SE
Cosmos 1464 Rocket 4.2 23:31:47 10° N 23:37:53 59° ENE 23:41:13 27° SSE
Tiangong 1 2.5 23:35:29 10° WSW 23:36:46 22° WSW 23:36:46 22° WSW
Terra 2.6 23:36:22 22° SSW 23:39:08 45° W 23:43:43 10° NNW
Cosmos 2058 3.2 23:38:51 25° SSW 23:41:10 67° W 23:45:23 10° N
Cosmos 1703 3.3 23:40:50 32° SSW 23:42:36 78° W 23:46:38 10° N
Cosmos 1356 4.2 23:44:13 26° SW 23:45:52 49° WNW 23:49:17 10° N
Cosmos 1354 Rocket 3.9 23:46:13 28° S 23:49:00 73° ESE 23:54:14 10° NNE
CZ-2C R/B 3.5 23:49:09 10° NNE 23:53:59 33° E 23:55:34 28° SE
SS 1 4.5 23:51:40 10° NW 23:54:33 70° SW 23:54:40 69° SSW
ERBS 3.4 23:51:44 10° WNW 23:54:40 30° SW 23:54:40 30° SW
